Location: Newark
(35.6799°N, 139.7636°E)
Time: 11:19:27
(UTC+00:00)

Courier 1B Rocket - Pass Details

Date: 17 December 2019
Orbit: 920 x 1202 km, 28.2° (Epoch: 18 January)

Event Time Altitude Azimuth Distance (km) Brightness Sun altitude
Exits shadow 19:06:46 43° 194° (SSW) 1,519 5.8 -31.2°
Maximum altitude 19:07:42 45° 174° (S) 1,468 5.9 -31.0°
Drops below altitude 10° 19:14:24 10° 104° (ESE) 2,877 8.4 -29.6°
Sets 19:17:09 0° 98° (E) 3,787 9.3 -29.1°
